FW6157 Weather Reports


time (UTC)temp
C
wind
direction
speed
KPH
gust
KPH
rain 1hr
cm
rain 24hr
cm
rain mn
cm
humidity
%
barometer
mb
20260901024024 24 0 0.0 0.0 0.00 0.00 0.00 92 1019.2
20260901023527 24 0 0.0 0.0 0.00 0.00 0.00 92 1019.3
20260901023056 24 0 0.0 0.0 0.00 0.00 0.00 92 1019.4
20260901022525 25 0 0.0 0.0 0.00 0.00 0.00 92 1019.2
20260901022023 25 0 0.0 0.0 0.00 0.00 0.00 92 1019.2
20260901021553 25 0 0.0 0.0 0.00 0.00 0.00 92 1019.1
20260901021023 25 0 0.0 0.0 0.00 0.00 0.00 92 1019.1
20260901020525 25 0 0.0 0.0 0.00 0.00 0.00 92 1019.1
20260901020046 25 0 0.0 0.0 0.00 0.00 0.00 92 1019.0
20260901015525 25 0 0.0 0.0 0.00 0.00 0.00 91 1019.0
20260901015026 25 0 0.0 0.0 0.00 0.00 0.00 91 1019.1
20260901014554 25 0 0.0 0.0 0.00 0.00 0.00 91 1018.9
20260901014025 25 0 0.0 0.0 0.00 0.00 0.00 91 1018.9
20260901013524 25 0 0.0 0.0 0.00 0.00 0.00 91 1018.9
20260901013101 25 0 0.0 0.0 0.00 0.00 0.00 91 1018.9
20260901012523 25 0 0.0 0.0 0.00 0.00 0.00 90 1018.7
20260901012026 25 0 0.0 0.0 0.00 0.00 0.00 90 1018.8
20260901011543 25 0 0.0 0.0 0.00 0.00 0.00 90 1018.7
20260901011025 25 0 0.0 0.0 0.00 0.00 0.00 90 1018.6
20260901010528 25 0 0.0 0.0 0.00 0.00 0.00 89 1018.5
20260901010055 25 0 0.0 0.0 0.00 0.00 0.00 89 1018.5
20260901005523 25 0 0.0 0.0 0.00 0.00 0.00 88 1018.4
20260901005024 25 0 0.0 0.0 0.00 0.00 0.00 88 1018.3
20260901004556 25 0 0.0 0.0 0.00 0.00 0.00 88 1018.4
20260901004022 26 0 0.0 0.0 0.00 0.00 0.00 87 1018.3
20260901003525 26 0 0.0 0.0 0.00 0.00 0.00 87 1018.1
20260901003054 26 0 0.0 0.0 0.00 0.00 0.00 87 1018.1
20260901002525 26 0 0.0 0.0 0.00 0.00 0.00 87 1018.0
20260901002025 26 0 0.0 0.0 0.00 0.00 0.00 86 1018.0
20260901001549 26 0 0.0 0.0 0.00 0.00 0.00 86 1018.0
20260901001024 27 0 0.0 0.0 0.00 0.00 0.00 86 1018.0
20260901000524 27 0 0.0 0.0 0.00 0.00 0.00 86 1017.9
20260901000049 27 0 0.0 0.0 0.00 0.00 0.00 86 1017.9
20260831235524 27 0 0.0 0.0 0.00 0.00 0.00 86 1017.8
20260831235028 27 0 0.0 0.0 0.00 0.00 0.00 85 1017.8
20260831234544 27 0 0.0 0.0 0.00 0.00 0.00 84 1017.8
20260831234023 28 0 0.0 0.0 0.00 0.00 0.00 84 1017.8
20260831233523 28 0 0.0 0.0 0.00 0.00 0.00 83 1017.8
20260831233043 28 0 0.0 0.0 0.00 0.00 0.00 83 1017.9
20260831232525 28 0 0.0 0.0 0.00 0.00 0.00 82 1017.9
20260831232021 28 0 0.0 0.0 0.00 0.00 0.00 83 1017.9
20260831231557 28 0 0.0 1.6 0.00 0.00 0.00 82 1018.0
20260831231024 29 0 0.0 1.6 0.00 0.00 0.00 80 1017.9
20260831230525 29 0 0.0 0.0 0.00 0.00 0.00 79 1018.0
20260831230050 30 0 0.0 0.0 0.00 0.00 0.00 79 1018.0
20260831225522 30 0 0.0 0.0 0.00 0.76 0.00 78 1018.0
20260831225027 30 0 0.0 0.0 0.00 0.76 0.00 76 1018.0
20260831224542 30 0 0.0 0.0 0.00 0.76 0.00 76 1018.0
20260831224025 30 0 0.0 0.0 0.00 0.76 0.00 76 1018.0
20260831223522 31 0 0.0 0.0 0.00 0.76 0.00 75 1017.9
20260831223048 31 0 0.0 0.0 0.00 0.76 0.00 74 1018.0
20260831222525 31 0 0.0 0.0 0.00 0.76 0.00 73 1017.9
20260831222023 31 0 0.0 4.8 0.00 0.76 0.00 70 1017.8
20260831221544 32 0 0.0 4.8 0.00 0.76 0.00 69 1017.8
20260831221023 32 303 0.0 3.2 0.00 0.76 0.00 68 1017.9
20260831220526 32 277 0.0 3.2 0.00 0.76 0.00 66 1017.8
20260831220043 32 51 0.0 6.4 0.00 0.76 0.00 64 1017.8
20260831215528 32 0 0.0 9.7 0.00 0.76 0.00 66 1017.8
20260831215027 32 355 1.6 9.7 0.00 0.76 0.00 64 1017.8
20260831214549 32 22 1.6 9.7 0.00 0.76 0.00 62 1017.9
20260831214023 32 0 0.0 6.4 0.00 0.76 0.00 65 1018.0
20260831213527 32 0 0.0 6.4 0.00 0.76 0.00 64 1018.0
20260831213046 32 0 0.0 4.8 0.00 0.76 0.00 66 1018.0
20260831212523 32 27 0.0 4.8 0.00 0.76 0.00 65 1018.1
20260831212024 32 0 0.0 6.4 0.00 0.76 0.00 62 1018.0
20260831211545 32 0 0.0 6.4 0.00 0.76 0.00 66 1018.1
20260831211026 32 126 1.6 6.4 0.00 0.76 0.00 64 1018.1
20260831210531 32 0 3.2 6.4 0.00 0.76 0.00 63 1018.1
20260831210040 32 44 0.0 4.8 0.00 0.76 0.00 64 1018.1
20260831205527 32 0 0.0 6.4 0.00 0.76 0.00 62 1018.1
20260831205025 32 0 0.0 6.4 0.00 0.76 0.00 64 1018.3
20260831204547 32 0 0.0 4.8 0.00 0.76 0.00 63 1018.3
20260831204023 32 0 0.0 4.8 0.00 0.76 0.00 60 1018.3
20260831203522 32 0 0.0 6.4 0.00 0.76 0.00 61 1018.2
20260831203042 32 15 3.2 8.0 0.00 0.76 0.00 63 1018.3
20260831202523 32 329 1.6 8.0 0.00 0.76 0.00 63 1018.4
20260831202026 32 0 0.0 6.4 0.00 0.76 0.00 63 1018.4
20260831201552 33 112 1.6 6.4 0.00 0.76 0.00 61 1018.5
20260831201028 32 0 0.0 8.0 0.00 0.76 0.00 63 1018.5
20260831200527 32 0 1.6 8.0 0.00 0.76 0.00 65 1018.5
20260831200045 32 24 0.0 11.3 0.00 0.76 0.00 64 1018.7
20260831195524 32 0 1.6 11.3 0.00 0.76 0.00 61 1018.7
20260831195027 32 0 0.0 3.2 0.00 0.76 0.00 63 1018.8
20260831194628 32 0 0.0 6.4 0.00 0.76 0.00 67 1018.9
20260831194025 31 38 0.0 6.4 0.00 0.76 0.00 66 1018.9
20260831193525 31 26 3.2 6.4 0.00 0.76 0.00 67 1019.1
20260831193042 31 142 0.0 9.7 0.00 0.76 0.00 71 1019.3
20260831192525 31 128 3.2 9.7 0.00 0.76 0.00 69 1019.2
20260831192029 31 355 1.6 6.4 0.00 0.76 0.00 72 1019.1
20260831191548 31 0 0.0 0.0 0.00 0.76 0.00 71 1019.2
20260831191029 31 0 0.0 6.4 0.00 0.76 0.00 71 1019.4
20260831190523 31 0 1.6 6.4 0.00 0.76 0.00 71 1019.5
20260831190057 31 36 0.0 4.8 0.00 0.76 0.00 68 1019.6
20260831185526 31 298 0.0 0.0 0.00 0.76 0.00 69 1019.7
20260831185022 31 0 0.0 0.0 0.00 0.76 0.00 70 1019.7
20260831184553 31 0 0.0 0.0 0.00 0.76 0.00 72 1019.8
20260831184025 30 0 0.0 4.8 0.00 0.76 0.00 76 1019.9
20260831183524 30 0 0.0 4.8 0.00 0.76 0.00 75 1019.9
20260831183052 30 328 1.6 4.8 0.00 0.76 0.00 73 1019.9
20260831182528 30 325 1.6 8.0 0.00 0.76 0.00 73 1020.0
20260831182024 30 321 0.0 8.0 0.00 0.76 0.00 74 1020.1
20260831181550 30 0 1.6 8.0 0.00 0.76 0.00 71 1020.1
20260831181023 30 0 0.0 8.0 0.00 0.76 0.00 75 1020.1
20260831180522 30 0 1.6 8.0 0.00 0.76 0.00 72 1020.2
20260831180044 30 0 0.0 6.4 0.00 0.76 0.00 74 1020.1
20260831175529 30 0 0.0 8.0 0.00 0.76 0.00 74 1020.1
20260831175026 30 37 1.6 8.0 0.00 0.76 0.00 73 1020.2
20260831174545 30 0 1.6 6.4 0.00 0.76 0.00 72 1020.1
20260831174028 30 0 1.6 6.4 0.00 0.76 0.00 74 1020.2
20260831173524 30 0 0.0 4.8 0.00 0.76 0.00 73 1020.4
20260831173049 30 37 0.0 4.8 0.00 0.76 0.00 75 1020.4
20260831172524 30 45 0.0 4.8 0.00 0.76 0.00 75 1020.3
20260831172031 29 0 0.0 4.8 0.00 0.76 0.00 75 1020.6
20260831171545 29 0 0.0 4.8 0.00 0.76 0.00 78 1020.6
20260831171024 30 0 0.0 4.8 0.00 0.76 0.00 73 1020.7
20260831170523 30 0 1.6 4.8 0.00 0.76 0.00 76 1020.8
20260831170045 30 0 1.6 8.0 0.00 0.76 0.00 76 1020.8
20260831165523 30 20 1.6 8.0 0.00 0.76 0.00 73 1020.7
20260831165026 30 126 1.6 12.9 0.00 0.76 0.00 73 1020.7
20260831164543 30 136 3.2 12.9 0.00 0.76 0.00 75 1020.7
20260831164026 29 45 0.0 6.4 0.00 0.76 0.00 78 1020.7
20260831163528 28 44 1.6 4.8 0.00 0.76 0.00 76 1020.7
20260831163043 28 41 0.0 6.4 0.00 0.76 0.00 77 1020.7
20260831162529 29 0 0.0 6.4 0.00 0.76 0.00 77 1020.9
20260831162027 29 360 3.2 6.4 0.00 0.76 0.00 80 1020.9
20260831161553 29 5 1.6 8.0 0.00 0.76 0.00 80 1020.9
20260831161025 29 26 1.6 8.0 0.00 0.76 0.00 77 1021.1
20260831160525 29 25 0.0 9.7 0.00 0.76 0.00 78 1021.1
20260831160050 29 0 0.0 11.3 0.00 0.76 0.00 78 1021.1
20260831155524 29 44 3.2 11.3 0.00 0.76 0.00 78 1021.3
20260831155028 29 0 0.0 8.0 0.00 0.76 0.00 81 1021.0
20260831154611 29 174 1.6 9.7 0.00 0.76 0.00 77 1021.1
20260831154024 29 0 1.6 9.7 0.00 0.76 0.00 80 1021.2
20260831153526 28 0 0.0 9.7 0.00 0.76 0.00 81 1021.1
20260831153045 28 32 1.6 6.4 0.00 0.76 0.00 81 1021.2
20260831152526 28 0 0.0 4.8 0.00 0.76 0.00 83 1021.1
20260831152026 28 46 0.0 9.7 0.00 0.76 0.00 84 1021.1
20260831151601 28 45 1.6 9.7 0.00 0.76 0.00 83 1021.1
20260831151025 28 0 1.6 9.7 0.00 0.76 0.00 82 1021.2
20260831150524 28 0 0.0 9.7 0.00 0.76 0.00 84 1021.1
20260831150048 27 116 0.0 11.3 0.00 0.76 0.00 85 1021.1
20260831145525 27 121 3.2 11.3 0.00 0.76 0.00 86 1021.1
20260831145026 27 135 1.6 6.4 0.00 0.76 0.00 88 1021.1
20260831144612 26 0 1.6 4.8 0.00 0.76 0.00 90 1021.2
20260831144029 26 0 0.0 4.8 0.00 0.76 0.00 90 1021.1
20260831143531 26 0 0.0 6.4 0.00 0.76 0.00 91 1021.1
20260831143043 26 94 0.0 6.4 0.00 0.76 0.00 91 1021.2
20260831142527 26 0 0.0 4.8 0.00 0.76 0.00 92 1021.1
20260831142026 26 121 1.6 9.7 0.00 0.76 0.00 92 1021.1
20260831141551 25 120 0.0 9.7 0.00 0.76 0.00 94 1021.1
20260831141024 25 113 0.0 6.4 0.00 0.76 0.00 95 1021.0
20260831140528 25 0 0.0 3.2 0.00 0.76 0.00 96 1020.9
20260831140044 25 0 0.0 3.2 0.00 0.76 0.00 97 1021.0
20260831135524 25 0 0.0 4.8 0.00 0.76 0.00 98 1021.0
20260831135030 24 0 0.0 4.8 0.00 0.76 0.00 98 1021.0
20260831134546 24 0 0.0 4.8 0.00 0.76 0.00 98 1021.0
20260831134024 24 19 0.0 6.4 0.00 0.76 0.00 98 1021.1
20260831133522 23 19 1.6 6.4 0.00 0.76 0.00 98 1021.0
20260831133101 23 17 1.6 4.8 0.00 0.76 0.00 99 1021.1
20260831132524 23 0 0.0 0.0 0.00 0.76 0.00 99 1021.1
20260831132024 23 0 0.0 0.0 0.00 0.76 0.00 98 1021.1
20260831131600 23 0 0.0 0.0 0.00 0.76 0.00 99 1021.1
20260831131025 23 0 0.0 0.0 0.00 0.76 0.00 98 1021.0
20260831130524 23 0 0.0 0.0 0.00 0.76 0.00 98 1021.1
20260831130045 23 0 0.0 0.0 0.00 0.76 0.00 98 1021.1
20260831125528 23 0 0.0 0.0 0.00 0.76 0.00 98 1021.1
20260831125023 22 0 0.0 0.0 0.00 0.76 0.00 98 1021.0
20260831124552 22 0 0.0 0.0 0.00 0.76 0.00 98 1020.9
20260831124026 22 0 0.0 0.0 0.00 0.76 0.00 98 1020.8
20260831123523 22 0 0.0 0.0 0.00 0.76 0.00 98 1020.9
20260831123047 22 0 0.0 0.0 0.00 0.76 0.00 98 1021.0
20260831122525 22 0 0.0 0.0 0.00 0.76 0.00 98 1020.9
20260831122028 22 0 0.0 0.0 0.00 0.76 0.00 98 1020.9
20260831121549 22 0 0.0 0.0 0.00 0.76 0.00 98 1020.9
20260831121026 22 0 0.0 1.6 0.00 0.76 0.00 98 1020.8
20260831120526 21 0 0.0 1.6 0.00 0.76 0.00 98 1020.8
20260831120045 21 0 0.0 0.0 0.00 0.76 0.00 98 1020.7
20260831115527 21 0 0.0 0.0 0.00 0.76 0.00 98 1020.7
20260831115022 21 0 0.0 0.0 0.00 0.76 0.00 98 1020.7
20260831114552 21 0 0.0 0.0 0.00 0.76 0.00 98 1020.6
20260831114022 21 0 0.0 0.0 0.00 0.76 0.00 97 1020.6
20260831113526 21 0 0.0 0.0 0.00 0.76 0.00 98 1020.6
20260831113043 21 0 0.0 0.0 0.00 0.76 0.00 97 1020.5
20260831112528 21 0 0.0 0.0 0.00 0.76 0.00 97 1020.5
20260831112024 21 0 0.0 0.0 0.00 0.76 0.00 97 1020.5
20260831111553 21 0 0.0 0.0 0.00 0.76 0.00 97 1020.4
20260831111025 21 0 0.0 0.0 0.00 0.76 0.00 97 1020.3
20260831110524 21 0 0.0 0.0 0.00 0.76 0.00 97 1020.3
20260831110044 21 0 0.0 0.0 0.00 0.76 0.00 97 1020.3
20260831105523 21 0 0.0 0.0 0.00 0.76 0.00 97 1020.3
20260831105025 21 0 0.0 0.0 0.00 0.76 0.00 97 1020.1
20260831104545 21 0 0.0 0.0 0.00 0.76 0.00 97 1020.1
20260831104025 21 0 0.0 0.0 0.00 0.76 0.00 97 1020.0
20260831103525 21 0 0.0 0.0 0.00 0.76 0.00 97 1020.0
20260831103048 21 0 0.0 0.0 0.00 0.76 0.00 97 1020.0
20260831102525 21 0 0.0 0.0 0.00 0.76 0.00 97 1019.9
20260831102023 21 0 0.0 0.0 0.00 0.76 0.00 97 1019.9
20260831101546 21 0 0.0 0.0 0.00 0.76 0.00 97 1019.9
20260831101025 21 0 0.0 0.0 0.00 0.76 0.00 97 1019.8
20260831100526 21 0 0.0 0.0 0.00 0.76 0.00 97 1019.7
20260831100110 21 0 0.0 0.0 0.00 0.76 0.00 97 1019.7
20260831095524 21 0 0.0 0.0 0.00 0.76 0.00 97 1019.7
20260831095025 21 0 0.0 0.0 0.00 0.76 0.00 97 1019.6
20260831094542 21 0 0.0 0.0 0.00 0.76 0.00 97 1019.6
20260831094023 21 0 0.0 0.0 0.00 0.76 0.00 97 1019.6
20260831093530 21 0 0.0 0.0 0.00 0.76 0.00 97 1019.6
20260831093051 21 0 0.0 0.0 0.00 0.76 0.00 97 1019.6
20260831092529 21 0 0.0 0.0 0.00 0.76 0.00 97 1019.6
20260831092024 21 0 0.0 0.0 0.00 0.76 0.00 97 1019.6
20260831091552 21 0 0.0 0.0 0.00 0.76 0.00 97 1019.6
20260831091030 21 0 0.0 0.0 0.00 0.76 0.00 97 1019.6
20260831090525 21 0 0.0 0.0 0.00 0.76 0.00 97 1019.6
20260831090043 21 0 0.0 0.0 0.00 0.76 0.00 97 1019.6
20260831085526 21 0 0.0 0.0 0.00 0.76 0.00 97 1019.6
20260831085031 21 0 0.0 0.0 0.00 0.76 0.00 97 1019.5
20260831084619 21 0 0.0 0.0 0.00 0.76 0.00 97 1019.5
20260831084025 21 0 0.0 0.0 0.00 0.76 0.00 97 1019.5
20260831083524 21 0 0.0 0.0 0.00 0.76 0.00 97 1019.5
20260831083045 21 0 0.0 0.0 0.00 0.76 0.00 97 1019.6
20260831082524 21 0 0.0 0.0 0.00 0.76 0.00 97 1019.5
20260831082023 21 0 0.0 0.0 0.00 0.76 0.00 97 1019.4
20260831081544 21 0 0.0 0.0 0.00 0.76 0.00 97 1019.4
20260831081022 21 0 0.0 0.0 0.00 0.76 0.00 97 1019.4
20260831080524 21 0 0.0 0.0 0.00 0.76 0.00 97 1019.4
20260831080105 21 0 0.0 0.0 0.00 0.76 0.00 97 1019.4
20260831075523 21 0 0.0 0.0 0.00 0.76 0.00 97 1019.5
20260831075024 21 0 0.0 0.0 0.00 0.76 0.00 97 1019.5
20260831074559 21 0 0.0 0.0 0.00 0.76 0.00 97 1019.5
20260831074023 21 0 0.0 0.0 0.00 0.76 0.00 97 1019.5
20260831073526 21 0 0.0 0.0 0.00 0.76 0.00 97 1019.5
20260831073052 21 0 0.0 0.0 0.00 0.76 0.00 97 1019.5
20260831072524 21 0 0.0 0.0 0.00 0.76 0.00 97 1019.6
20260831072025 21 0 0.0 0.0 0.00 0.76 0.00 97 1019.5
20260831071549 21 0 0.0 0.0 0.00 0.76 0.00 97 1019.5
20260831071024 22 0 0.0 0.0 0.00 0.76 0.00 97 1019.4
20260831070524 22 0 0.0 0.0 0.00 0.76 0.00 97 1019.5
20260831070052 22 0 0.0 0.0 0.00 0.76 0.00 97 1019.5
20260831065526 22 0 0.0 0.0 0.00 0.76 0.00 97 1019.5
20260831065025 22 0 0.0 0.0 0.00 0.76 0.00 97 1019.4
20260831064547 22 0 0.0 0.0 0.00 0.76 0.00 97 1019.5
20260831064025 22 0 0.0 0.0 0.00 0.76 0.00 97 1019.5
20260831063523 22 0 0.0 0.0 0.00 0.76 0.00 97 1019.4
20260831063043 22 0 0.0 0.0 0.00 0.76 0.00 97 1019.5
20260831062523 22 0 0.0 0.0 0.00 0.76 0.00 97 1019.4
20260831062027 22 0 0.0 0.0 0.00 0.76 0.00 97 1019.4
20260831061545 22 0 0.0 0.0 0.00 0.76 0.00 97 1019.4
20260831061023 22 0 0.0 0.0 0.00 0.76 0.00 97 1019.6
20260831060525 22 0 0.0 0.0 0.00 0.76 0.00 97 1019.5
20260831055524 22 0 0.0 0.0 0.00 0.76 0.00 97 1019.7
20260831055024 22 0 0.0 0.0 0.00 0.76 0.00 96 1019.7
20260831054547 22 0 0.0 0.0 0.00 0.76 0.00 97 1019.8
20260831054023 22 0 0.0 0.0 0.00 0.76 0.00 97 1019.8
20260831053523 22 0 0.0 0.0 0.00 0.76 0.00 96 1019.8
20260831053104 22 0 0.0 0.0 0.00 0.76 0.00 96 1019.7
20260831052524 22 0 0.0 0.0 0.00 0.76 0.00 97 1019.8
20260831052022 22 0 0.0 0.0 0.00 0.76 0.00 97 1019.7
20260831051547 22 0 0.0 0.0 0.00 0.76 0.00 97 1019.8
20260831051024 22 0 0.0 0.0 0.00 0.76 0.00 97 1019.8
20260831050523 22 0 0.0 0.0 0.00 0.76 0.00 97 1019.8
20260831050104 22 0 0.0 0.0 0.00 0.76 0.00 97 1019.7
20260831045524 22 0 0.0 0.0 0.00 0.76 0.00 96 1019.7
20260831045027 22 0 0.0 0.0 0.00 0.76 0.00 96 1019.8
20260831044545 22 0 0.0 0.0 0.00 0.76 0.00 97 1019.7
20260831044022 22 0 0.0 0.0 0.00 0.76 0.00 97 1019.7
20260831043524 22 0 0.0 0.0 0.00 0.76 0.00 96 1019.7
20260831043052 22 0 0.0 0.0 0.00 0.76 0.00 96 1019.6
20260831042525 22 0 0.0 0.0 0.00 0.76 0.00 96 1019.7
20260831042023 22 0 0.0 0.0 0.00 0.76 0.00 96 1019.8
20260831041553 22 0 0.0 0.0 0.00 0.76 0.00 96 1019.7
20260831041025 22 0 0.0 0.0 0.00 0.76 0.00 96 1019.6
20260831040522 22 0 0.0 0.0 0.00 0.76 0.00 96 1019.6
20260831040043 23 0 0.0 0.0 0.00 0.76 0.00 96 1019.8
20260831035524 23 0 0.0 0.0 0.00 0.76 0.76 96 1019.8
20260831035024 23 0 0.0 0.0 0.00 0.76 0.76 96 1019.9
20260831034548 23 0 0.0 0.0 0.00 0.76 0.76 96 1019.8
20260831034023 23 0 0.0 0.0 0.00 0.76 0.76 96 1019.9
20260831033529 23 0 0.0 0.0 0.00 0.76 0.76 96 1020.1
20260831033100 23 0 0.0 0.0 0.00 0.76 0.76 96 1020.0
20260831032528 23 0 0.0 0.0 0.00 0.76 0.76 96 1020.0
20260831032024 23 0 0.0 0.0 0.00 0.76 0.76 96 1019.9
20260831031553 23 0 0.0 0.0 0.00 0.76 0.76 96 1019.8
20260831031024 23 0 0.0 0.0 0.00 0.76 0.76 96 1019.9
20260831030524 23 0 0.0 0.0 0.00 0.76 0.76 96 1020.0
20260831030047 23 0 0.0 0.0 0.00 0.76 0.76 96 1020.0
20260831025525 23 0 0.0 0.0 0.00 0.76 0.76 96 1019.9
20260831025026 23 0 0.0 0.0 0.00 0.76 0.76 96 1020.0
20260831024541 23 0 0.0 0.0 0.00 0.76 0.76 96 1020.1